EW1613 Weather Reports


time (UTC)temp
C
wind
direction
speed
KPH
gust
KPH
rain 1hr
cm
rain 24hr
cm
rain mn
cm
humidity
%
barometer
mb
20260504130448 27 223 3.2 9.7 0.00 0.00 0.00 38 1016.3
20260504110454 25 68 0.0 4.8 0.00 0.00 0.00 46 1017.4
20260504100516 23 237 1.6 6.4 0.00 0.00 0.00 49 1018.0
20260504081954 20 57 3.2 6.4 0.00 0.00 0.00 59 1018.2
20260504081441 20 44 0.0 6.4 0.00 0.00 0.00 58 1018.2
20260504080932 20 43 1.6 6.4 0.00 0.00 0.00 59 1018.3
20260504080447 20 34 3.2 6.4 0.00 0.00 0.00 58 1018.3
20260504050450 13 46 0.0 0.0 0.00 0.00 0.00 78 1017.4
20260504045940 13 46 0.0 0.0 0.00 0.00 0.00 78 1017.4
20260504045437 13 46 0.0 1.6 0.00 0.00 0.00 79 1017.4
20260504044947 13 46 0.0 3.2 0.00 0.00 0.00 79 1017.4
20260504044443 13 49 1.6 3.2 0.00 0.00 0.00 79 1017.3
20260504043931 13 49 0.0 3.2 0.00 0.00 0.00 80 1017.4
20260504043446 13 49 0.0 3.2 0.00 0.00 0.00 80 1017.3
20260504042933 13 49 0.0 0.0 0.00 0.00 0.00 80 1017.3
20260504042429 13 49 0.0 0.0 0.00 0.00 0.00 80 1017.2
20260504041946 13 49 0.0 0.0 0.00 0.00 0.00 80 1017.2
20260504041434 13 49 0.0 0.0 0.00 0.00 0.00 80 1017.2
20260504040930 13 49 0.0 0.0 0.00 0.00 0.00 80 1017.1
20260504040439 13 49 0.0 0.0 0.00 0.00 0.00 80 1017.0
20260504035936 13 49 0.0 0.0 0.00 0.00 0.00 81 1017.0
20260504035451 13 49 0.0 0.0 0.00 0.00 0.00 81 1017.0
20260504034938 13 49 0.0 0.0 0.00 0.00 0.00 81 1017.0
20260504034434 13 49 0.0 0.0 0.00 0.00 0.00 80 1017.0
20260504033943 13 49 0.0 0.0 0.00 0.00 0.00 80 1017.0
20260504033441 13 49 0.0 0.0 0.00 0.00 0.00 80 1017.0
20260504032930 13 49 0.0 3.2 0.00 0.00 0.00 80 1017.0
20260504032445 13 49 1.6 1.6 0.00 0.00 0.00 79 1017.0
20260504032002 13 49 0.0 0.0 0.00 0.00 0.00 79 1017.1
20260504031429 13 49 0.0 0.0 0.00 0.00 0.00 79 1017.0
20260504031005 13 49 0.0 0.0 0.00 0.00 0.00 78 1017.0
20260504030440 14 49 0.0 0.0 0.00 0.00 0.00 78 1017.0
20260504025931 14 49 0.0 0.0 0.00 0.00 0.00 78 1017.0
20260504025442 14 49 0.0 0.0 0.00 0.00 0.00 78 1017.1
20260504024938 14 49 0.0 0.0 0.00 0.00 0.00 78 1017.1
20260504024453 14 49 0.0 0.0 0.00 0.00 0.00 78 1017.1
20260504024000 14 49 0.0 0.0 0.00 0.00 0.00 78 1017.2
20260504023457 14 49 0.0 0.0 0.00 0.00 0.00 78 1017.2
20260504022932 14 49 0.0 0.0 0.00 0.00 0.00 78 1017.2
20260504022450 14 49 0.0 0.0 0.00 0.00 0.00 78 1017.2
20260504021941 14 49 0.0 0.0 0.00 0.00 0.00 78 1017.2
20260504021429 14 49 0.0 0.0 0.00 0.00 0.00 78 1017.3
20260504020934 14 49 0.0 0.0 0.00 0.00 0.00 78 1017.2
20260504020450 14 49 0.0 0.0 0.00 0.00 0.00 78 1017.2
20260504015940 14 49 0.0 0.0 0.00 0.00 0.00 78 1017.2
20260504015435 14 49 0.0 0.0 0.00 0.00 0.00 78 1017.2
20260504015009 14 49 0.0 0.0 0.00 0.00 0.00 79 1017.2
20260504014438 14 49 0.0 0.0 0.00 0.00 0.00 79 1017.2
20260504013932 14 49 0.0 0.0 0.00 0.00 0.00 79 1017.1
20260504013442 14 49 0.0 0.0 0.00 0.00 0.00 79 1017.1
20260504012939 14 49 0.0 0.0 0.00 0.00 0.00 79 1017.2
20260504012450 14 49 0.0 0.0 0.00 0.00 0.00 79 1017.2
20260504011938 14 49 0.0 0.0 0.00 0.00 0.00 80 1017.1
20260504011455 14 49 0.0 0.0 0.00 0.00 0.00 80 1017.1
20260504010949 15 49 0.0 0.0 0.00 0.00 0.00 80 1017.2
20260504010459 15 49 0.0 0.0 0.00 0.00 0.00 80 1017.1
20260504005931 15 49 0.0 0.0 0.00 0.00 0.00 80 1017.2
20260504005447 15 49 0.0 0.0 0.00 0.00 0.00 80 1017.2
20260504004935 15 49 0.0 0.0 0.00 0.00 0.00 80 1017.2
20260504004451 15 49 0.0 0.0 0.00 0.00 0.00 80 1017.3
20260504004002 15 49 0.0 0.0 0.00 0.00 0.00 80 1017.2
20260504003457 15 49 0.0 1.6 0.00 0.00 0.00 80 1017.3
20260504002951 15 49 0.0 1.6 0.00 0.00 0.00 80 1017.3
20260504002437 15 49 0.0 1.6 0.00 0.00 0.00 80 1017.3
20260504001933 15 49 0.0 1.6 0.00 0.00 0.00 80 1017.3
20260504001446 15 49 0.0 1.6 0.00 0.00 0.00 80 1017.4
20260504000936 15 49 0.0 1.6 0.00 0.00 0.00 80 1017.4
20260504000431 15 49 0.0 0.0 0.00 0.00 0.00 80 1017.4
20260503235937 15 49 0.0 0.0 0.00 0.00 0.00 79 1017.4
20260503235431 15 49 0.0 0.0 0.00 0.00 0.00 79 1017.5
20260503234934 15 49 0.0 0.0 0.00 0.00 0.00 79 1017.5
20260503234429 15 49 0.0 0.0 0.00 0.00 0.00 79 1017.5
20260503233944 15 49 0.0 0.0 0.00 0.00 0.00 78 1017.5
20260503233432 15 49 0.0 0.0 0.00 0.00 0.00 78 1017.5
20260503232929 15 49 0.0 0.0 0.00 0.00 0.00 78 1017.5
20260503232439 15 49 0.0 0.0 0.00 0.00 0.00 78 1017.5
20260503231937 15 49 0.0 0.0 0.00 0.00 0.00 78 1017.6
20260503231454 15 49 0.0 0.0 0.00 0.00 0.00 79 1017.6
20260503230939 15 49 0.0 1.6 0.00 0.00 0.00 78 1017.5
20260503230454 15 49 0.0 1.6 0.00 0.00 0.00 78 1017.6
20260503225944 15 49 0.0 0.0 0.00 0.00 0.00 78 1017.6
20260503225439 15 49 0.0 0.0 0.00 0.00 0.00 78 1017.7
20260503224948 15 49 0.0 0.0 0.00 0.00 0.00 78 1017.6
20260503224504 15 49 0.0 0.0 0.00 0.00 0.00 78 1017.7
20260503224000 15 49 0.0 0.0 0.00 0.00 0.00 78 1017.7
20260503223434 16 49 0.0 1.6 0.00 0.00 0.00 78 1017.7
20260503222945 16 49 0.0 1.6 0.00 0.00 0.00 78 1017.7
20260503222439 16 49 0.0 0.0 0.00 0.00 0.00 77 1017.7
20260503221955 16 49 0.0 0.0 0.00 0.00 0.00 77 1017.7
20260503221503 16 49 0.0 0.0 0.00 0.00 0.00 77 1017.7
20260503220940 16 49 0.0 0.0 0.00 0.00 0.00 77 1017.6
20260503220457 16 49 0.0 0.0 0.00 0.00 0.00 77 1017.6
20260503215942 16 49 0.0 0.0 0.00 0.00 0.00 77 1017.6
20260503215438 16 49 0.0 0.0 0.00 0.00 0.00 76 1017.6
20260503214947 16 49 0.0 3.2 0.00 0.00 0.00 76 1017.6
20260503214435 16 49 0.0 3.2 0.00 0.00 0.00 76 1017.5
20260503213930 16 52 1.6 3.2 0.00 0.00 0.00 75 1017.5
20260503213444 16 30 0.0 6.4 0.00 0.00 0.00 74 1017.5
20260503212952 17 30 1.6 6.4 0.00 0.00 0.00 74 1017.6
20260503212447 17 60 3.2 4.8 0.00 0.00 0.00 73 1017.5
20260503211942 17 53 3.2 4.8 0.00 0.00 0.00 71 1017.5
20260503211432 17 94 1.6 3.2 0.00 0.00 0.00 70 1017.5
20260503210948 17 94 0.0 1.6 0.00 0.00 0.00 70 1017.4
20260503210444 18 94 0.0 3.2 0.00 0.00 0.00 69 1017.4
20260503205940 18 94 1.6 4.8 0.00 0.00 0.00 69 1017.4
20260503205447 18 94 0.0 6.4 0.00 0.00 0.00 68 1017.4
20260503204942 18 94 1.6 6.4 0.00 0.00 0.00 68 1017.3
20260503204431 18 140 3.2 4.8 0.00 0.00 0.00 68 1017.3
20260503203928 18 140 1.6 4.8 0.00 0.00 0.00 68 1017.3
20260503203436 18 144 0.0 1.6 0.00 0.00 0.00 67 1017.3
20260503202932 18 145 0.0 1.6 0.00 0.00 0.00 66 1017.3
20260503202448 18 145 0.0 3.2 0.00 0.00 0.00 65 1017.3
20260503201937 18 145 1.6 4.8 0.00 0.00 0.00 65 1017.2
20260503201432 19 144 1.6 6.4 0.00 0.00 0.00 65 1017.1
20260503200941 19 133 1.6 6.4 0.00 0.00 0.00 65 1017.2
20260503200436 19 153 3.2 8.0 0.00 0.00 0.00 64 1017.1
20260503195947 19 126 3.2 12.9 0.00 0.00 0.00 64 1017.1
20260503195436 19 134 3.2 9.7 0.00 0.00 0.00 64 1017.1
20260503195007 19 135 3.2 11.3 0.00 0.00 0.00 64 1017.1
20260503194442 20 124 3.2 11.3 0.00 0.00 0.00 63 1017.0
20260503193930 20 136 3.2 12.9 0.00 0.00 0.00 63 1017.0
20260503193511 20 138 3.2 12.9 0.00 0.00 0.00 63 1016.9
20260503192938 20 140 3.2 12.9 0.00 0.00 0.00 63 1016.9
20260503192432 20 147 4.8 12.9 0.00 0.00 0.00 63 1016.9
20260503191947 20 148 6.4 12.9 0.00 0.00 0.00 63 1016.9
20260503191441 20 143 6.4 12.9 0.00 0.00 0.00 63 1016.9
20260503190930 20 173 4.8 12.9 0.00 0.00 0.00 63 1016.9
20260503190445 20 151 3.2 9.7 0.00 0.00 0.00 62 1016.8
20260503185942 21 155 3.2 11.3 0.00 0.00 0.00 62 1016.7
20260503185428 21 152 4.8 14.5 0.00 0.00 0.00 61 1016.7
20260503184943 21 118 3.2 14.5 0.00 0.00 0.00 60 1016.6
20260503184428 21 145 4.8 16.1 0.00 0.00 0.00 60 1016.6
20260503183942 21 132 4.8 16.1 0.00 0.00 0.00 59 1016.5
20260503183438 21 113 3.2 11.3 0.00 0.00 0.00 58 1016.5
20260503182945 21 149 6.4 11.3 0.00 0.00 0.00 57 1016.5
20260503182434 22 125 3.2 12.9 0.00 0.00 0.00 56 1016.4
20260503181951 22 136 6.4 12.9 0.00 0.00 0.00 55 1016.4
20260503181440 22 167 3.2 12.9 0.00 0.00 0.00 54 1016.4
20260503180937 22 145 4.8 11.3 0.00 0.00 0.00 53 1016.4
20260503180454 22 119 1.6 11.3 0.00 0.00 0.00 53 1016.3
20260503175940 22 134 4.8 11.3 0.00 0.00 0.00 52 1016.3
20260503175435 22 138 3.2 11.3 0.00 0.00 0.00 52 1016.3
20260503174954 22 146 3.2 12.9 0.00 0.00 0.00 51 1016.4
20260503174443 23 143 3.2 12.9 0.00 0.00 0.00 51 1016.3
20260503173931 23 133 3.2 12.9 0.00 0.00 0.00 50 1016.3
20260503173448 23 135 3.2 12.9 0.00 0.00 0.00 49 1016.3
20260503172944 23 103 4.8 14.5 0.00 0.00 0.00 49 1016.1
20260503172432 23 68 6.4 19.3 0.00 0.00 0.00 48 1016.2
20260503171950 23 138 9.7 19.3 0.00 0.00 0.00 48 1016.2
20260503171445 23 85 8.0 19.3 0.00 0.00 0.00 47 1016.2
20260503170934 24 130 3.2 17.7 0.00 0.00 0.00 47 1016.1
20260503170444 24 153 6.4 17.7 0.00 0.00 0.00 46 1016.0
20260503150939 26 234 8.0 12.9 0.00 0.00 0.00 35 1017.0
20260503150428 26 207 6.4 14.5 0.00 0.00 0.00 35 1017.0